Other Public Products
Issued by NWS Grand Forks, ND

Home | Current Version | Previous Version | Text Only | Print | Product List | Glossary Off
Versions: 1 2 3 4 5 6 7 8 9 10 11 12 13 14 15 16 17 18 19 20 21 22 23 24 25 26 27 28 29 30 31 32 33 34 35 36 37 38 39 40 41 42 43 44 45 46 47 48 49 50

740
FPUS83 KFGF 281031
OPUFGF
PRAIRIE TO PINES WEATHER ROUNDUP
NATIONAL WEATHER SERVICE EASTERN NORTH DAKOTA/GRAND FORKS ND
500 AM CDT WED SEP 28 2016

 **SATELLITE DATA USED TO AUGMENT SKY COVER AT AUTOMATED STATIONS**
 *****  WEATHER ACROSS EASTERN NORTH DAKOTA  *****

CITY           SKY/WX    TMP DP  RH WIND       PRES   REMARKS
GRAND FORKS    CLOUDY    40  38  93 NW6       30.14R
GRAND FORKS AF CLOUDY    40  39  96 N2        30.14R
GRAND CITY NWS   N/A     41 N/A N/A VRB3        N/A
BUXTON           N/A     51  51  99 CALM        N/A
DEVILS LAKE    CLOUDY    46  44  93 E6        30.16R
FARGO          CLOUDY    39  37  92 N6        30.13R
WAHPETON ARPT  CLOUDY    41  37  87 NW6       30.13R
$$

 *****  WEATHER ACROSS CENTRAL AND WESTERN NORTH DAKOTA  *****

CITY           SKY/WX    TMP DP  RH WIND       PRES   REMARKS
JAMESTOWN      CLOUDY    39  38  96 CALM      30.14R
BISMARCK       CLOUDY    38  36  92 E8        30.16R
MINOT          CLEAR     42  37  82 E3        30.14R
MINOT AFB      CLEAR     39  35  86 SE8       30.13R
GARRISON         N/A     45  40  82 E3        30.13R
WILLISTON      CLEAR     53  48  83 N8        30.12R
DICKINSON      CLEAR     47  42  83 S10       30.09R
HETTINGER      CLEAR     50  43  77 E3        30.13R
$$

 *****  OTHER OBSERVATIONS NORTHEAST NORTH DAKOTA  *****

CITY           SKY/WX    TMP DP  RH WIND       PRES   REMARKS
WALHALLA       FAIR      41  41 100 CALM      30.17R
LANGDON        FOG       39  39 100 CALM      30.17R VSB 1/2
CAVALIER       FAIR      41  39  93 CALM      30.17R
GRAFTON        FAIR      41  41 100 N3        30.18R
CANDO          FOG       32  32 100 N5        30.19R VSB 1/4
FORT TOTTEN      N/A     46  46 100 SE2       29.95S
ROLLA          FAIR      32  32 100 SW6       30.18R FOG
RUGBY          FOG       36  36 100 CALM      30.17R VSB 1/2
 ***** THE ABOVE OBSERVATIONS ARE NON NWS ARE NOT QUALITY
        CONTROLLED AND MAY MIS-REPORT RAIN FOR SNOW...
$$

 *****  OTHER OBSERVATIONS SOUTHEAST NORTH DAKOTA *****

CITY           SKY/WX    TMP DP  RH WIND       PRES   REMARKS
COOPERSTOWN    FAIR      43  41  93 NE3       30.16R
VALLEY CITY    FAIR      41  41 100 N6        30.17R
OAKES          NOT AVBL
GWINNER        FAIR      41  41 100 N6        30.14R
SHEYENNE NWR     N/A     40  38  93 N2        29.95
BUFFALO          N/A     40  37  90 N5          N/A
WYNDMERE         N/A     39  37  93 NW3         N/A
 ***** THE ABOVE OBSERVATIONS ARE NON NWS ARE NOT QUALITY
       CONTROLLED AND MAY MIS-REPORT RAIN FOR SNOW...
$$

  *****  WEATHER ACROSS NORTHERN MINNESOTA  *****

CITY           SKY/WX    TMP DP  RH WIND       PRES   REMARKS
FLAG ISLAND    MOCLDY    50  48  93 NW8       30.14R
WARROAD        CLOUDY    46  43  87 N6        30.15R
ROSEAU         CLOUDY    46  43  87 CALM      30.15R
HALLOCK        CLOUDY    41  39  93 CALM      30.16R
THF RVR FALLS    N/A     46  43  89 NE8       30.15R
HALSTAD          N/A     38  37  97 N7          N/A
FOSSTON        CLOUDY    43  41  93 NW6       30.14R
BAUDETTE       PTCLDY    47  45  93 N7        30.13R
WASKISH        PTCLDY    46  45  93 N3        30.12R
CROOKSTON      CLOUDY    41  39  93 N5        30.15R
$$
  *****  WEATHER ACROSS CENTRAL AND WEST MINNESOTA  *****

CITY           SKY/WX    TMP DP  RH WIND       PRES   REMARKS
BEMIDJI        CLOUDY    46  46  97 N5        30.12R
PARK RAPIDS    CLOUDY    48  44  86 N8        30.09R
WADENA         CLOUDY    45  45 100 N8        30.09R
DETROIT LAKES  CLOUDY    45  45 100 NE7       30.13R
MOORHEAD       CLOUDY    37  37 100 N5        30.14R
FERGUS FALLS   CLOUDY    41  41 100 CALM      30.14R
ELBOW LAKE     CLOUDY    43  42  97 CALM      30.11R
MORRIS MN      CLOUDY    45  43  93 NW6       30.09R
STAPLES        CLOUDY    46  46 100 N5        30.09R
WHEATON        CLOUDY    43  43 100 NW6       30.13R
$$
  *****  WEATHER ELSEWHERE ACROSS MINNESOTA  *****

CITY           SKY/WX    TMP DP  RH WIND       PRES   REMARKS
DULUTH         MOCLDY    51  49  92 N9        30.00R
INTRNTL FALLS  PTCLDY    50  48  93 N7        30.10R
ELY            CLEAR     48  46  93 CALM      30.05R
CLOQUET        MOCLDY    48  46  93 N7        30.02R
BRAINERD       PTCLDY    48  46  93 N7        30.06R
HIBBING        MOCLDY    48  46  93 N9        30.06R
ALEXANDRIA     CLOUDY    46  45  96 NE10      30.09R
SAINT CLOUD    CLOUDY    49  47  93 N9        30.04R
MINNEAPOLIS    CLOUDY    51  46  83 N12       29.99R
$$

  *****  WEATHER ACROSS SOUTH DAKOTA  *****

CITY           SKY/WX    TMP DP  RH WIND       PRES   REMARKS
SIOUX FALLS    MOCLDY    47  42  83 N8        30.07R
BROOKINGS      CLOUDY    46  44  93 N5        30.08R
WATERTOWN      CLOUDY    47  42  83 N8        30.09R
HURON          CLOUDY    35  34  96 NW7       30.12R
SISSETON         N/A     39  37  92 NW5       30.11R
ABERDEEN       CLOUDY    40  37  89 N6        30.13R
MITCHELL       CLOUDY    39  36  89 NW6       30.10R
PIERRE         CLEAR     42  36  79 NE7       30.12R
MOBRIDGE       CLOUDY    43  36  76 SE8       30.13R
RAPID CITY     CLEAR     54  40  59 NW10      30.15R
$$

  *****  SOME WEATHER IN NEARBY STATES *****

CITY           SKY/WX    TMP DP  RH WIND       PRES   REMARKS
GLASGOW MT     CLEAR     53  44  71 NW13G20   30.18R
GREAT FALLS MT CLEAR     40  36  86 NW3       30.32R
CHEYENNE WY    CLOUDY    47  31  53 W10       30.30R
SCOTTSBLUFF NE CLEAR     49  40  71 NW9       30.20R
OMAHA NE       CLEAR     48  43  82 N7        29.99R
DES MOINES IA  PTCLDY    54  44  69 N12       29.94R
DAVENPORT IA   MOCLDY    50  44  80 N10       29.86R
CHICAGO IL     LGT RAIN  53  46  77 NW6       29.78F
EAU CLAIRE WI  CLOUDY    51  48  89 N10       29.91R
LA CROSSE WI   CLOUDY    53  49  86 NW13      29.89R
$$

  *****  SOME NATIONAL WEATHER *****

CITY           SKY/WX    TMP DP  RH WIND       PRES   REMARKS
LA GUARDIA NY  PTCLDY    64  59  83 N8        30.02S
RALEIGH NC     CLOUDY    70  69  97 VRB3      29.92S
ATLANTA GA     PTCLDY    69  67  93 W3        29.92S
NEW ORLEANS LA MOCLDY    79  67  66 N5        29.94S
OKLAHOMA CITY  CLEAR     59  49  69 SW7       30.00R
ALBUQUERQUE NM PTCLDY    60  43  53 CALM      30.25S
SALT LAKE CITY CLEAR     56  48  74 SE6       30.14S
LOS ANGELES CA MOCLDY    73  59  61 E5        29.89S
BOISE ID       CLEAR     63  40  42 SE10      30.01F
SEATTLE WA     CLOUDY    55  46  71 NE8       30.12F
$$

*** WEATHER ACROSS MANITOBA...SASKATCHEWAN AND ONTARIO ***
                ***ONTARIO***

CITY           SKY/WX    TMP DP  RH WIND       PRES   REMARKS
GERALDTON      CLOUDY    52  50  93 NE8       30.06R
THUNDER BAY    CLEAR     50  46  87 NE6       30.01R
SIOUX LOOKOUT  CLOUDY    48  48 100 VRB2      30.14R
TORONTO        MOCLDY    59  54  82 E5        29.92R
BIG TROUT LK   LGT RAIN  50  50 100 NW5       30.14  FOG
PICKLE LAKE    NOT AVBL
DRYDEN         CLEAR     50  48  93 NE3       30.12R
KENORA         CLOUDY    48  48 100 N7        30.15R
$$
                *** MANITOBA***

CITY           SKY/WX    TMP DP  RH WIND       PRES   REMARKS
BRANDON        FOG       34  34 100 N5        30.18R VSB 3/8
DAUPHIN        CLEAR     34  34 100 W6        30.16R
ISLAND LAKE    CLOUDY    46  45  93 W12       30.16R
PILOT MOUND      N/A     34  32  93 SW2         N/A
THE PAS        MOCLDY    50  45  81 NW8       30.14R
THOMPSON       MOCLDY    45  41  87 SW7       30.10R
WINNIPEG       CLEAR     36  36 100 N3        30.17R
LYNN LAKE      CLEAR     41  41 100 W6        30.07R
CHURCHILL      CLOUDY    43  43 100 SW12G17   29.95F
GILLAM         DRIZZLE   45  43  93 SW8       30.08R
$$
                ***SASKATCHEWAN***

CITY           SKY/WX    TMP DP  RH WIND       PRES   REMARKS
ESTEVAN        PTCLDY    43  39  87 E6        30.11R
KINDERSLEY     PTCLDY    41  34  75 VRB2      30.32R
LLOYDMINSTER   CLEAR     34  30  86 W9        30.31R
PRINCE ALBERT  CLEAR     41  39  93 W6        30.26R
REGINA         CLEAR     50  45  81 N13G20    30.18R
YORKTON        CLEAR     43  37  81 S6        30.14R   C1F1C2F2C3F3C4F4C5F5C6F6C7F7C8F8C9F9CaFaCbFbCcFcCdFdCe!



USA.gov is the U.S. government's official web portal to all federal, state and local government web resources and services.